This is the latest recevied weather packets stored in our database for station/object EA1BQO-1. If no packets are shown the sender has not sent any weather packets the latest 10 day(s).
| Time | Temp. | Humidity | Pressure | Rain* | Wind** | Luminosity | Snow |
|---|---|---|---|---|---|---|---|
| 1778075943 | 18.89° C | 22% | 1008.6 hPa | 0 mm | - | - | - |
| 1778075343 | 18.89° C | 22% | 1008.6 hPa | 0 mm | - | - | - |
| 1778074742 | 18.89° C | 23% | 1008.7 hPa | 0 mm | - | - | - |
| 1778074142 | 18.33° C | 25% | 1008.7 hPa | 0 mm | - | - | - |
| 1778073543 | 18.33° C | 21% | 1008.9 hPa | 0 mm | - | - | - |
| 1778072942 | 17.78° C | 27% | 1009 hPa | 0 mm | - | - | - |
| 1778072342 | 17.78° C | 26% | 1009.2 hPa | 0 mm | - | - | - |
| 1778071742 | 17.78° C | 27% | 1009.2 hPa | 0 mm | - | - | - |
| 1778071142 | 17.22° C | 30% | 1009.3 hPa | 0 mm | - | - | - |
| 1778070542 | 17.22° C | 32% | 1009.5 hPa | 0 mm | - | - | - |
| 1778069942 | 17.22° C | 29% | 1009.7 hPa | 0 mm | - | - | - |
| 1778069342 | 17.22° C | 32% | 1009.7 hPa | 0 mm | - | - | - |
| 1778068742 | 16.67° C | 34% | 1009.9 hPa | 0 mm | - | - | - |
| 1778068142 | 16.67° C | 35% | 1010 hPa | 0 mm | - | - | - |
| 1778067542 | 16.11° C | 38% | 1010 hPa | 0 mm | - | - | - |
| 1778066942 | 16.11° C | 34% | 1010.3 hPa | 0 mm | - | - | - |
| 1778066342 | 16.11° C | 41% | 1010.6 hPa | 0 mm | - | - | - |
| 1778065742 | 15.56° C | 41% | 1010.5 hPa | 0 mm | - | - | - |
| 1778065142 | 15.56° C | 45% | 1010.6 hPa | 0 mm | - | - | - |
| 1778064542 | 15.56° C | 46% | 1010.6 hPa | 0 mm | - | - | - |
| 1778063942 | 15° C | 45% | 1010.6 hPa | 0 mm | - | - | - |
| 1778063342 | 15° C | 52% | 1010.8 hPa | 0 mm | - | - | - |
| 1778062742 | 13.89° C | 55% | 1010.8 hPa | 0 mm | - | - | - |
| 1778062142 | 13.89° C | 56% | 1010.7 hPa | 0 mm | - | - | - |
| 1778061542 | 12.78° C | 61% | 1010.7 hPa | 0 mm | - | - | - |
* Rain latest hour (hover to see other rain measurements)
** Current wind speed in m/s (hover to see current wind gust speed)